|
Asteroid 2009 YD7
(Preview)
|
Solar System
|
1
|
1985
|
|
|
Orbital elements: 2009 YD7 Epoch 2009 Nov. 25.0 TT = JDT 2455160.5 MPC M 358.90326 (2000.0) P Q n 0.00073357 Peri. 326.81444 -0.11145727 -0.90326797 a 121.7611112 Node 125.99288 +0.98624346 -0.15175557 e 0.8900669 Incl. 30.80488 +0.12207016 +0.40134428 P1344 H 8.7 G 0.15 From 12 observations 2...
|
|
|
|
|
|
TNO 2009 YE7
(Preview)
|
Solar System
|
2
|
2772
|
|
|
2009 YE7 is a trans-Neptunian object with an absolute magnitude of 2.8. This qualifies it as a dwarf planet candidate. It was discovered by David Rabinowitz on December 17, 2009 at the La Silla Observatory in Chile. 2009 YE7 is the first large KBO found from the southern hemisphere. [url=http://en....
|
|
|
|
|
|
Asteroid 2010 HG109
(Preview)
|
Solar System
|
0
|
1348
|
|
|
Orbital elements: 2010 HG109 Epoch 2010 May 4.0 TT = JDT 2455320.5 MPC M 0.05065 (2000.0) P Q n 0.00391948 Peri. 184.28697 -0.62118828 +0.69549689 a 39.8397690 Node 47.82169 -0.70372821 -0.29231421 e 0.2334625 Incl. 29.16364 -0.34480681 -0.65638135 P 251 H 7.3 G 0.15 From 6 observations 2010 Apr...
|
|
|
|
|
|
TNO (225088) 2007 OR10
(
1 2
)
(Preview)
|
Solar System
|
18
|
9654
|
|
|
(225088) 2007 OR10 is a Trans-Neptunian object with an absolute magnitude of 1.9. This qualifies it as one of the largest dwarf planet candidates: Brown estimates that it is between Sedna and Quaoar in size. Mike Brown's discovery team has nicknamed the object "Snow White", as it wou...
|
|
|
|
|
|
Asteroid 2010 PU75
(Preview)
|
Asteroids
|
2
|
1759
|
|
|
Orbital elements: 2010 PU75 Epoch 2010 Aug. 12.0 TT = JDT 2455420.5 MPC M 0.02137 (2000.0) P Q n 0.00345082 Peri. 215.55989 +0.49572413 +0.85021876 a 43.3698692 Node 84.76896 -0.74998723 +0.52194708 e 0.0781153 Incl. 10.24752 -0.43792321 +0.06855154 P 286 H 5.3 G 0.15 From 6 observations 2010 Au...
|
|
|
|
|
|
Asteroid 2010 BL4
(Preview)
|
Solar System
|
1
|
1307
|
|
|
Orbital elements: 2010 BL4 Epoch 2010 Jan. 24.0 TT = JDT 2455220.5 MPC M 1.47826 (2000.0) P Q n 0.01215267 Peri. 255.81672 -0.49457189 -0.82952809 a 18.7364872 Node 226.91683 +0.86913539 -0.47150850 e 0.5426728 Incl. 20.80255 +0.00152556 -0.29927058 P 81.1 H 12.0 G 0.15 From 9 observations 2010...
|
|
|
|
|
|
Asteroid 2010 FC49
(Preview)
|
Asteroids
|
0
|
1126
|
|
|
Orbital elements:
2010 FC49
Epoch 2011 Feb. 8.0 TT = JDT 2455600.5 MPC
M 250.62132 (2000.0) P Q
n 0.00405992 Peri. 295.77967 +0.45596139 +0.88978167
a 38.9156729 Node 1.76156 -0.39236924 +0.22082783
e 0.0663377 Incl. 39.83682 -0.79884016 +0.39940411
P 243 H 5.7 G 0.15 U 6 MPEC 2011 - G73
|
|
|
|
|
|
Asteroid 2004 VV130
(Preview)
|
Asteroids
|
0
|
1336
|
|
|
Orbital elements:
2004 VV130
Epoch 2011 Feb. 8.0 TT = JDT 2455600.5 MPC
M 348.68015 (2000.0) P Q
n 0.00394628 Peri. 28.34008 +0.29219982 -0.91023839
a 39.6592128 Node 46.42748 +0.78306124 +0.05158955
e 0.1919572 Incl. 23.88935 +0.54903039 +0.41085835
P 250 H 7.3 G 0.15 U 2 MPEC 2011 - G80
|
|
|
|
|
|
Asteroids 2004 KD19 AND 2004 OP15
(Preview)
|
Asteroids
|
0
|
1151
|
|
|
Orbital elements:
2004 KD19
Epoch 2011 Feb. 8.0 TT = JDT 2455600.5 MPC
M 176.40825 (2000.0) P Q
n 0.00417407 Peri. 62.49103 +0.38595315 -0.92251313
a 38.2028615 Node 4.80923 +0.83275191 +0.34694340
e 0.0182718 Incl. 2.12834 +0.39694386 +0.16911477
P 236 H 7.4 G 0.15 U 42004 OP15
Epoch 20...
|
|
|
|
|
|
Asteroid 2007 BP102
(Preview)
|
Asteroids
|
0
|
1328
|
|
|
Orbital elements:
2007 BP102
Epoch 2011 Feb. 8.0 TT = JDT 2455600.5 MPC
M 3.62062 (2000.0) P Q
n 0.00847249 Peri. 125.30846 -0.65367966 -0.40007309
a 23.8302449 Node 45.22754 -0.44570670 -0.48246952
e 0.2563060 Incl. 64.80548 +0.61159499 -0.77920773
P 116.33 H 10.7 G 0.15 U 5 MPEC 2011 - H...
|
|
|
|
|
|
Asteroid 2011 GK71
(Preview)
|
Asteroids
|
0
|
1140
|
|
|
Orbital elements:
2011 GK71
Epoch 2011 Apr. 9.0 TT = JDT 2455660.5 MPC
M 9.89543 (2000.0) P Q
n 0.00494804 Peri. 99.59529 -0.38294802 -0.77939112
a 34.1072699 Node 33.66220 -0.09920812 -0.49900051
e 0.7924731 Incl. 63.45956 +0.91842722 -0.37887725
P 199 H 8.6 G 0.15
From 22 observation...
|
|
|
|
|
|
Asteroid 2010 HE79
(Preview)
|
Solar System
|
1
|
1696
|
|
|
Orbital elements: 2010 HE79 Epoch 2010 Apr. 14.0 TT = JDT 2455300.5 MPC M 359.97670 (2000.0) P Q n 0.00330044 Peri. 352.41898 -0.61612808 +0.75762413 a 44.6774663 Node 239.28348 -0.70886683 -0.65257626 e 0.2177769 Incl. 14.50928 -0.34335697 -0.01224336 P 299 H 5.1 G 0.15 From 6 observations 201...
|
|
|
|
|
|
Three New TNOS
(Preview)
|
Asteroids
|
0
|
1290
|
|
|
Orbital elements:
2004 HM79
Epoch 2011 Aug. 27.0 TT = JDT 2455800.5 MPC
M 132.17440 (2000.0) P Q
n 0.00450147 Peri. 242.62004 +0.19776801 -0.98023258
a 36.3273120 Node 195.97650 +0.90645453 +0.18507036
e 0.0816221 Incl. 1.17599 +0.37313269 +0.06995040
P 219 H 7.6 G 0.15 U 4
2005 CF81
E...
|
|
|
|
|
|
Asteroid 2010 KZ39
(Preview)
|
Solar System
|
4
|
3301
|
|
|
Orbital elements: 2010 KZ39 Epoch 2010 May 24.0 TT = JDT 2455340.5 MPC M 0.00981 (2000.0) P Q n 0.00311696 Peri. 196.98611 -0.36748789 +0.86380063 a 46.4139367 Node 52.85695 -0.79512977 -0.09957482 e 0.0034515 Incl. 25.61966 -0.48241196 -0.49389607 P 316 H 3.9 G 0.15 From 8 observations 2010 May...
|
|
|
|
|
|
TNO 2011 KT19
(Preview)
|
Asteroids
|
0
|
1310
|
|
|
Orbital elements:
2011 KT19
Epoch 2011 May 19.0 TT = JDT 2455700.5 MPC
M 24.79459 (2000.0) P Q
n 0.00678502 Peri. 307.96865 -0.85382775 -0.01223152
a 27.6334649 Node 237.65993 +0.02105716 -0.99971719
e 0.4059778 Incl. 38.02126 -0.52012956 -0.02039414
P 145 H 8.5 G 0.15
From 18 observat...
|
|
|
|
|
|
TNO 2010 LP68
(Preview)
|
Asteroids
|
0
|
1115
|
|
|
Orbital elements:
2010 LP68
Epoch 2011 Aug. 27.0 TT = JDT 2455800.5 MPC
M 48.23833 (2000.0) P Q
n 0.00451847 Peri. 298.11913 -0.92251523 +0.33865726
a 36.2361344 Node 262.17765 -0.25463687 -0.89451247
e 0.0290527 Incl. 10.77071 -0.29004432 -0.29181963
P 218 H 9.1 G 0.15 U 6 MPEC 2011 - M08...
|
|
|
|
|
|
TNO 2010 LQ68
(Preview)
|
Asteroids
|
0
|
1208
|
|
|
Asteroid 2010 LQ68Orbital elements:
2010 LQ68
Epoch 2011 Aug. 27.0 TT = JDT 2455800.5 MPC
M 314.51307 (2000.0) P Q
n 0.00327493 Peri. 12.65573 +0.75279284 +0.65671469
a 44.9091574 Node 306.20115 -0.60869970 +0.66843910
e 0.2249657 Incl. 3.19976 -0.25057458 +0.34916325
P 301 H 7.6 G 0.1...
|
|
|
|
|
|
Asteroid 2010 JK124
(Preview)
|
Solar System
|
1
|
2052
|
|
|
Orbital elements: 2010 JK124 Epoch 2010 May 4.0 TT = JDT 2455320.5 MPC M 3.20593 (2000.0) P Q n 0.00335548 Peri. 317.67159 -0.52424286 +0.81256275 a 44.1874799 Node 279.18319 -0.69572670 -0.58120887 e 0.0878668 Incl. 14.95644 -0.49105374 -0.04402307 P 294 H 5.4 G 0.15 From 9 observations 2010 Ma...
|
|
|
|
|
|
Asteroid 2011 MM4
(Preview)
|
Asteroids
|
1
|
1322
|
|
|
Orbital elements:
2011 MM4
Epoch 2011 June 28.0 TT = JDT 2455740.5 MPC
M 314.90353 (2000.0) P Q
n 0.01532040 Peri. 165.20119 -0.18383127 +0.11491448
a 16.0554533 Node 278.53313 +0.77137456 +0.63242945
e 0.4253032 Incl. 99.19686 +0.60925147 -0.76604677
P 64.3 H 9.4 G 0.15
From 73 observ...
|
|
|
|
|
|
TNO 2006 BR284 AND 2006 JZ81
(Preview)
|
Asteroids
|
0
|
1374
|
|
|
Orbital elements:
2006 BR284
Epoch 2011 Aug. 27.0 TT = JDT 2455800.5 MPC
M 15.42813 (2000.0) P Q
n 0.00339812 Peri. 100.38021 -0.43077033 -0.90244618
a 43.8171144 Node 15.13958 +0.81988875 -0.39379194
e 0.0402324 Incl. 1.15735 +0.37711982 -0.17469632
P 290 H 6.9 G 0.15 U 42006 JZ81
Epoc...
|
|
|
|
|
|
TNO 2006 CJ69
(Preview)
|
Asteroids
|
1
|
1890
|
|
|
Orbital elements:
2006 CJ69
Epoch 2011 Aug. 27.0 TT = JDT 2455800.5 MPC
M 331.70193 (2000.0) P Q
n 0.00360538 Peri. 59.17618 -0.95425133 +0.18581575
a 42.1213474 Node 130.43064 -0.23344109 -0.95254472
e 0.2266807 Incl. 17.92380 +0.18684124 -0.24110386
P 273 H 7.7 G 0.15 U 3 MPEC 2011 - O18...
|
|
|
|
|
|
Asteroid 2004 VU130
(Preview)
|
Asteroids
|
0
|
1012
|
|
|
Orbital elements:
2004 VU130
Epoch 2011 Aug. 27.0 TT = JDT 2455800.5 MPC
M 44.41168 (2000.0) P Q
n 0.00198295 Peri. 272.40092 +0.70470385 +0.70312770
a 62.7471782 Node 42.94301 -0.58295634 +0.65004519
e 0.4302767 Incl. 8.00632 -0.40441858 +0.28818862
P 497 H 7.0 G 0.15 U 4 MPEC 2011 - O17
|
|
|
|
|
|
Five New TNOs
(Preview)
|
Asteroids
|
0
|
1147
|
|
|
Orbital elements:
2004 HN79
Epoch 2011 Aug. 27.0 TT = JDT 2455800.5 MPC
M 338.82626 (2000.0) P Q
n 0.00320501 Peri. 219.50985 -0.31040368 +0.94423213
a 45.5599807 Node 32.83749 -0.81282009 -0.20369175
e 0.2271852 Incl. 11.69184 -0.49292297 -0.25871868
P 308 H 6.9 G 0.15 U 32004 KK19
Epo...
|
|
|
|
|
|
Asteroid 2011 FX62
(Preview)
|
Asteroids
|
0
|
1207
|
|
|
Asteroid 2011 FX62 = 2005 CC79Orbital elements:
2011 FX62 = 2005 CC79
Epoch 2011 Aug. 27.0 TT = JDT 2455800.5 MPC
M 7.05456 (2000.0) P Q
n 0.00299695 Peri. 232.60687 -0.90690431 -0.29811650
a 47.6449290 Node 288.29416 +0.41084722 -0.78240468
e 0.5727705 Incl. 18.27591 -0.09342982 -0.546...
|
|
|
|
|
|
Asteroid 2004 VK78
(Preview)
|
Asteroids
|
0
|
1312
|
|
|
Orbital elements:
2004 VK78
Epoch 2011 Aug. 27.0 TT = JDT 2455800.5 MPC
M 17.22200 (2000.0) P Q
n 0.00294528 Peri. 312.54438 +0.93895740 -0.34322006
a 48.2005367 Node 67.54128 +0.32266795 +0.85472256
e 0.3360042 Incl. 1.46597 +0.11934987 +0.38942180
P 335 H 7.9 G 0.15 U 4 MPEC 2011 - O32
|
|
|
|
|
|
Asteroid 2004 KZ18
(Preview)
|
Asteroids
|
0
|
1164
|
|
|
Orbital elements:
2004 KZ18
Epoch 2011 Aug. 27.0 TT = JDT 2455800.5 MPC
M 1.55558 (2000.0) P Q
n 0.00240026 Peri. 11.31054 -0.45882100 +0.83473447
a 55.2455528 Node 232.14802 -0.84233342 -0.51768366
e 0.3799509 Incl. 22.68101 -0.28276793 +0.18767526
P 411 H 8.5 G 0.15 U 4 MPEC 2011 - O33
|
|
|
|
|
|
Asteroid 2004 HO79
(Preview)
|
Asteroids
|
0
|
1128
|
|
|
Orbital elements:
2004 HO79
Epoch 2011 Aug. 27.0 TT = JDT 2455800.5 MPC
M 30.17057 (2000.0) P Q
n 0.00242008 Peri. 119.63529 -0.98976282 -0.11881540
a 54.9434460 Node 53.65197 +0.07101948 -0.89058348
e 0.4093278 Incl. 5.63403 +0.12379740 -0.43902615
P 407 H 7.3 G 0.15 U 2 MPEC 2011 - O34
|
|
|
|
|
|
Asteroid 2004 HP79
(Preview)
|
Asteroids
|
0
|
977
|
|
|
Orbital elements:
2004 HP79
Epoch 2011 Aug. 27.0 TT = JDT 2455800.5 MPC
M 349.33086 (2000.0) P Q
